Location: Indian Creek
(38.7764°N, 100.2707°W)
Time: 04:43:32
(UTC+00:00)

Daily predictions for brighter satellites

Satellite Brightness Start Highest point End
(mag) Time Altitude Azimuth Time Altitude Azimuth Time Altitude Azimuth
COBE Rocket 4.1 02:34:04 10° S 02:38:42 70° W 02:43:20 10° NNW
Ariane Rocket 4.2 02:34:51 10° ESE 02:39:04 27° ENE 02:43:18 10° N
Cosmos 1975 Rocket 4.1 02:38:19 10° SSE 02:42:04 28° E 02:45:51 10° NNE
Cosmos 2084 3.7 02:40:05 10° S 02:43:38 36° ESE 02:47:10 10° NE
H-2A R/B 2.3 02:40:10 10° NNE 02:44:29 52° E 02:48:51 10° S
Cosmos 1553 Rocket 4.3 02:42:22 10° S 02:48:43 79° W 02:55:11 10° N
Cosmos 1607 4.1 02:43:36 10° S 02:49:39 53° ESE 02:55:39 10° NE
Iridium 4 Rocket 4.4 02:45:05 10° N 02:50:56 62° W 02:56:33 10° SSW
Resurs 1-3 3.7 02:49:11 10° S 02:53:34 79° WSW 02:57:58 10° NNW
OBJECT-B 3.5 02:56:21 10° SW 02:57:58 14° W 02:59:36 10° WNW
Meteor 2-10 Rocket 3.6 02:53:24 10° N 02:58:22 59° ENE 03:03:18 10° SSE
Cosmos 1656 Rocket 4.3 02:54:12 10° NNW 02:59:31 54° WSW 03:04:54 10° S
Cosmos 2369 Rocket 3.3 02:55:48 10° NW 03:01:03 42° WSW 03:06:19 10° S
MetOp-A 4.3 02:59:55 10° S 03:04:01 55° W 03:08:30 10° NNW
S3M 4.0 02:58:37 10° S 03:04:50 86° E 03:11:01 10° N
CZ-4B R/B 1.0 03:05:21 10° NNE 03:08:10 55° E 03:10:59 10° S
Cosmos 1300 2.7 03:06:54 10° N 03:10:42 80° W 03:14:28 10° S
IRAS Rocket 4.4 03:06:25 10° NNE 03:11:53 52° ESE 03:17:16 10° S
USA 267 3.9 03:06:51 10° ENE 03:12:33 31° SE 03:18:12 10° S
Lacrosse 5 3.6 03:08:39 10° NNW 03:12:48 24° NNE 03:16:55 10° E
Cosmos 1371 Rocket 3.9 03:09:11 10° S 03:14:22 73° ESE 03:19:38 10° NNE
H-2A R/B 4.0 03:11:32 10° SSW 03:14:55 30° W 03:18:19 10° NW
Terra 3.7 03:13:36 10° E 03:16:21 16° ENE 03:19:07 10° NNE
Resurs 01 Rocket 1.6 03:12:49 10° SSE 03:17:15 88° ENE 03:21:43 10° NNW
MetOp-B 4.4 03:12:50 13° SE 03:17:27 53° ENE 03:22:39 10° N
Meteor 1-24 Rocket 3.7 03:14:30 10° S 03:19:39 56° E 03:24:55 10° NNE
Lacrosse 5 rocket 2.5 03:17:32 10° NNW 03:21:00 31° NE 03:23:58 14° E
Cosmos 1271 Rocket 4.2 03:19:35 10° NNE 03:22:50 24° ENE 03:24:38 17° ESE
Cosmos 1833 Rocket 4.2 03:22:32 15° ESE 03:23:54 16° E 03:27:12 10° ENE
ATLAS 5 CENTAUR R/B 3.2 03:13:03 10° NW 03:25:03 65° NE 03:27:55 19° ESE
DELTA 2 R/B (1) 4.1 03:20:26 10° W 03:25:46 47° SSW 03:29:36 18° SE
GEOS 3 Rocket 4.2 03:23:15 11° SSE 03:27:54 48° WSW 03:32:51 10° NW
Yuri Rocket 4.4 03:30:27 10° SW 03:33:44 22° S 03:34:44 20° SSE
Cosmos 1624 Rocket 4.1 03:29:20 10° SSW 03:34:34 80° WNW 03:39:48 10° NNE
Cosmos 1745 Rocket 4.5 03:30:29 10° NNW 03:36:30 59° W 03:42:32 10° S
Cosmos 1190 Rocket 4.0 03:35:13 10° NNW 03:40:33 84° ENE 03:44:09 21° SSE
Cosmos 724 4.2 03:35:10 10° SSW 03:40:56 72° ESE 03:46:43 10° NE
Cosmos 1025 Rocket 3.2 03:37:41 10° SSW 03:41:55 72° W 03:46:12 10° N
Cosmos 407 Rocket 3.9 03:38:07 10° NNW 03:43:12 59° WSW 03:47:15 16° S
ATLAS 2AS CENTAUR R/B 3.2 03:36:21 10° NNW 03:43:12 50° NE 03:47:41 20° ESE
SPOT 3 Rocket 3.5 03:42:09 21° SSE 03:45:39 72° ENE 03:50:51 10° N
ERS-1 Rocket 3.7 03:43:37 23° SE 03:46:14 39° ENE 03:50:54 10° N
ARIANE 5 R/B 4.2 03:48:18 19° E 03:49:55 23° ENE 03:53:24 10° NNE
Cosmos 1455 Rocket 3.3 03:45:44 10° NNW 03:50:02 65° W 03:53:08 18° S
CZ-2C R/B 4.1 03:48:10 10° NNE 03:52:31 42° E 03:54:13 29° SSE
Cosmos 1455 2.3 03:49:17 10° N 03:53:03 56° E 03:54:22 35° SE
Cosmos 1140 Rocket 4.4 03:49:45 10° NNW 03:54:37 42° WSW 03:58:43 14° SSW
Cosmos 2056 Rocket 4.4 03:50:11 10° SW 03:55:24 52° WNW 04:00:42 10° N
Tiangong 1.5 03:55:08 10° WNW 03:58:17 60° N 03:59:29 32° ENE
USA 245 3.6 03:57:30 25° S 04:00:22 84° WSW 04:04:26 10° NNW
Cosmos 676 Rocket 4.0 04:02:47 10° NNW 04:08:07 88° ENE 04:10:38 32° SSE
Cosmos 1703 3.3 04:12:11 48° SE 04:12:45 53° E 04:16:31 10° NNE
Cosmos 1536 Rocket 3.4 04:11:39 35° S 04:13:23 78° E 04:17:43 10° N
X-37B 2.7 04:13:12 10° WNW 04:15:34 24° N 04:17:50 11° NE
NOSS 2-1 (E) 4.5 04:12:02 10° NNW 04:16:59 62° NE 04:20:09 31° SE
Ariane Rocket 4.3 04:13:54 13° SSW 04:17:51 34° W 04:22:29 10° NNW
USA 102 3.6 04:18:17 75° E 04:18:37 78° NE 04:27:28 10° NNW
Cosmos 2228 3.7 04:14:50 10° N 04:18:46 36° ENE 04:19:16 35° E
Atlas Centaur 2 3.7 04:20:49 10° SW 04:22:04 12° SW 04:22:04 12° SW
SPOT 5 2.7 04:23:14 39° S 04:24:50 72° WSW 04:29:12 10° NNW
Cosmos 1954 Rocket 4.4 04:21:09 10° NNW 04:26:17 57° WSW 04:28:35 31° SSW
COSMOS 2406 3.9 04:25:53 33° ESE 04:26:23 33° ESE 04:31:29 10° NE
TSX-5 4.5 04:25:46 17° SW 04:28:56 66° WNW 04:34:14 10° NNE
Cosmos 1850 Rocket 4.2 04:30:04 10° N 04:35:12 57° ENE 04:36:31 44° ESE
Cosmos 2074 Rocket 3.9 04:29:57 10° N 04:36:15 89° E 04:38:55 37° S
Cosmos 1980 Rocket 4.0 04:37:02 10° N 04:41:13 21° NE 04:43:36 16° E
Cosmos 1697 Rocket 3.5 04:38:43 10° N 04:43:59 40° ENE 04:45:37 33° E
Cosmos 1331 Rocket 3.9 04:44:32 45° S 04:46:13 81° ESE 04:51:32 10° NNE
Nadezhda 1 Rocket 3.8 04:45:30 39° S 04:47:57 85° E 04:54:03 10° N
Spot 2 Rocket 4.3 04:46:39 29° SSW 04:48:40 43° W 04:53:31 10° NNW
Cosmos 1726 Rocket 4.2 04:45:45 10° N 04:49:43 39° ENE 04:49:43 39° ENE
Cosmos 1656 3.6 04:46:47 10° NNW 04:52:17 81° WSW 04:53:38 53° S
Helios 1A Rocket 4.1 04:52:09 29° WSW 04:53:00 32° W 04:56:42 10° NNW
Terra 2.2 04:52:27 43° SSW 04:53:37 55° W 04:58:18 10° NNW
SAR-Lupe-1 4.5 04:51:44 10° NNE 04:54:38 56° NNE 04:54:38 56° NNE
USA 267 3.5 04:49:18 10° NE 04:55:48 69° NW 05:02:16 10° WSW
Lacrosse 5 1.8 04:51:07 10° NW 04:56:12 71° SW 04:56:52 62° S
Cosmos 1452 Rocket 4.4 04:52:52 15° SW 04:56:58 45° WNW 05:02:01 10° N
Lacrosse 5 rocket 2.6 04:56:29 10° WNW 04:59:29 29° WSW 04:59:29 29° WSW
Cosmos 2154 Rocket 3.9 04:55:13 10° N 05:01:27 83° W 05:03:23 47° S
Meteor 1-21 Rocket 4.3 04:59:34 39° SSW 05:01:39 71° W 05:07:18 10° N
Cosmos 1610 Rocket 4.4 04:58:26 10° N 05:04:41 88° W 05:06:31 49° S
Cosmos 1295 Rocket 4.4 04:59:25 10° N 05:05:41 83° W 05:07:29 49° S
Cosmos 1833 Rocket 3.0 05:04:09 27° SW 05:07:11 63° WNW 05:12:47 10° NNE
Cosmos 1110 Rocket 4.5 05:06:23 31° SW 05:08:44 57° WNW 05:13:57 10° N
RESURS DK-1 2.5 05:08:34 10° NNW 05:12:18 72° NNW 05:12:18 72° NNW
Cosmos 1302 Rocket 3.9 05:12:39 66° ESE 05:12:47 66° ESE 05:17:56 10° NNE
Cosmos 1825 4.3 05:17:18 18° NE 05:17:18 18° NE 05:18:44 10° NE
Cosmos 1892 Rocket 3.6 05:22:06 78° NW 05:22:06 78° NW 05:26:18 10° N
Cosmos 2360 4.1 05:17:33 10° NNW 05:23:19 83° ENE 05:24:06 67° SE
Cosmos 2058 Rocket 3.5 05:20:15 10° N 05:24:07 52° NE 05:24:07 52° NE
ARIANE 5 R/B 3.9 05:25:51 31° WSW 05:26:11 31° W 05:30:09 10° NW
USA 234 3.9 05:23:42 24° E 05:27:25 50° NE 05:33:42 10° NW
Spot 4 4.3 05:29:09 48° ENE 05:29:09 48° ENE 05:33:43 10° N
Cosmos 2082 Rocket 2.0 05:30:00 71° S 05:30:37 82° ESE 05:36:21 10° NNE
SL-8 Rocket 4.0 05:25:08 10° N 05:31:20 64° E 05:32:16 57° ESE
ATLAS 2AS CENTAUR R/B 3.7 05:27:54 10° NW 05:33:44 30° WSW 05:35:07 28° SW
GP-B 3.4 05:36:57 10° N 05:41:01 62° WNW 05:41:01 62° WNW
SL-8 R/B 4.4 05:37:30 10° NW 05:42:13 50° NNE 05:42:59 45° ENE
Cosmos 2218 Rocket 4.0 05:37:39 10° N 05:44:03 68° E 05:45:00 60° SE
Cosmos 968 Rocket 3.4 05:42:06 10° NNW 05:47:18 76° ENE 05:47:18 76° ENE
Cosmos 2366 rocket 3.9 05:41:04 10° N 05:47:24 72° E 05:48:15 63° SE
BREEZE-M R/B 4.5 05:32:47 10° NW 05:48:41 45° WSW 05:49:52 41° SSW
Cosmos 1892 4.0 05:50:05 38° NNW 05:50:05 38° NNW 05:52:38 10° N
Cosmos 2341 Rocket 4.0 05:46:26 10° NNW 05:52:43 72° W 05:53:41 61° SSW
Okean 1-7 Rocket 4.0 05:57:08 59° N 05:57:08 59° N 06:00:47 10° N
Cosmos 2084 Rocket 4.5 06:02:14 10° NNW 06:04:56 41° NNW 06:04:56 41° NNW
SJ 16-02 3.6 06:03:49 10° NNE 06:06:28 15° ENE 06:06:56 15° ENE
Meteor 1-27 4.0 06:04:17 10° N 06:09:52 88° W 06:09:54 88° WSW
Cosmos 1959 Rocket 4.3 06:05:24 10° N 06:11:30 76° W 06:12:02 71° SW
Cosmos 2344 4.4 06:04:05 10° NW 06:13:42 77° WSW 06:18:51 43° SSE
Cosmos 2369 3.9 06:12:15 10° NNW 06:17:44 60° W 06:17:44 60° W
SL-16 R/B 3.5 06:13:57 10° N 06:19:00 32° ENE 06:20:25 28° E
Cosmos 2181 Rocket 4.4 06:19:27 45° WSW 06:20:32 50° W 06:26:33 10° N
Cosmos 1486 Rocket 4.1 06:15:46 10° NNW 06:20:46 66° NE 06:20:46 66° NE
Cosmos 1758 Rocket 4.4 06:26:39 47° NNE 06:26:39 47° NNE 06:29:49 10° N
Cosmos 1980 Rocket 2.4 06:20:03 10° NNW 06:25:20 58° W 06:25:20 58° W
Cosmos 1697 Rocket 4.1 06:23:08 10° NW 06:27:20 26° W 06:27:20 26° W
Cosmos 1992 Rocket 4.3 06:28:43 57° WNW 06:28:49 57° WNW 06:33:59 10° N
Meteor 2-20 4.2 06:28:36 80° S 06:28:57 88° E 06:35:05 10° N
ADEOS Rocket 3.3 06:28:15 64° S 06:29:29 80° WSW 06:37:05 10° NNW
ALOS 2 3.7 06:39:43 38° NW 06:39:43 38° NW 06:42:48 10° NNW
PSLV R/B 4.3 06:34:08 10° NNE 06:38:01 55° NE 06:38:01 55° NE
Cosmos 1812 Rocket 4.3 06:36:41 10° N 06:40:04 50° NNW 06:40:04 50° NNW
Cosmos 1821 Rocket 3.8 06:37:47 10° N 06:44:03 85° W 06:44:27 79° SSW
Cosmos 1354 Rocket 4.5 06:40:06 10° N 06:45:17 52° ENE 06:45:25 52° ENE
Cosmos 1867 4.0 06:50:01 10° NW 06:54:26 50° WNW 06:54:26 50° WNW
Meteor 2-20 Rocket 4.3 06:55:12 76° SW 06:55:36 80° W 07:01:45 10° N
Nadezhda 3 Rocket 3.9 06:55:14 67° WSW 06:55:42 69° W 07:01:51 10° N
ATLAS 5 CENTAUR R/B 3.0 06:57:28 29° NNW 06:57:28 29° NNW 07:00:27 10° NNE
Cosmos 2322 Rocket 2.9 06:52:30 10° N 06:57:59 47° ENE 06:59:02 42° E
Cosmos 1503 Rocket 4.0 06:52:41 10° NNW 06:57:38 77° N 06:57:38 77° N
Nimbus 7 Rocket 4.3 06:52:13 10° NNE 06:58:10 80° WNW 06:58:35 75° WSW
ERS-2 4.2 06:55:49 10° N 06:57:43 25° NNW 06:57:43 25° NNW
Cosmos 2333 Rocket 4.4 06:55:20 10° N 06:59:30 20° NE 07:03:38 10° E
SL-4 R/B 4.5 07:04:44 13° ENE 07:04:44 13° ENE 07:05:15 10° ENE
Cosmos 2278 4.2 06:56:54 10° NNW 07:01:48 47° W 07:01:48 47° W
USA 234 3.6 07:11:01 46° WSW 07:11:01 46° WSW 07:16:42 10° NW
Cosmos 1777 Rocket 4.3 07:07:32 10° N 07:12:46 59° ENE 07:12:59 58° E
Cosmos-2242 4.5 07:09:39 10° NNW 07:12:14 30° NW 07:12:14 30° NW
DEBRIS 3.8 07:00:08 10° WNW 07:13:46 85° NNE 07:14:32 66° ESE
Cosmos 1606 4.5 07:10:34 10° NNW 07:12:38 29° NNW 07:12:38 29° NNW
Cosmos 1953 Rocket 4.2 07:15:33 55° N 07:15:33 55° N 07:19:04 10° N
Cosmos 2058 4.1 07:17:01 39° NNW 07:17:01 39° NNW 07:19:59 10° N
ADEOS II 4.4 07:23:49 10° ENE 07:26:01 13° E 07:27:16 12° ESE
Cosmos 1833 4.0 07:30:55 78° ESE 07:30:59 78° ESE 07:36:36 10° NNE
Cosmos 2237 4.0 07:30:29 10° NNW 07:36:14 86° WSW 07:36:29 82° S
Cosmos 2360 Rocket 2.5 07:31:37 10° NNW 07:37:15 63° ENE 07:38:25 51° ESE
Meteor 2-11 Rocket 4.3 07:36:45 10° NNW 07:42:51 71° W 07:43:24 67° SW
Cosmos 1340 Rocket 4.4 07:46:22 28° NW 07:46:22 28° NW 07:48:52 10° N
SJ 16-02 2.6 07:41:02 10° NNW 07:43:52 34° NW 07:43:52 34° NW
SL-16 R/B 3.9 07:43:43 15° ESE 07:48:05 33° ENE 07:53:34 10° N
Cosmos 1842 Rocket 3.8 07:44:42 10° N 07:48:42 68° NNE 07:48:42 68° NNE
Thor Agena Rocket 3.4 07:51:02 10° NNE 07:56:15 82° ESE 07:56:31 78° SSE
NOSS 3-2 (A) 3.9 07:57:51 37° ESE 07:58:14 37° ESE 08:03:37 10° NE
Cosmos 2297 Rocket 4.4 07:59:29 12° ESE 08:01:28 14° E 08:04:19 10° ENE
IDEFIX/ARIANE 42P 4.2 07:57:43 10° NE 08:01:51 24° E 08:03:22 21° ESE
SL-16 R/B 3.1 07:58:00 10° NW 08:02:15 33° W 08:02:15 33° W
Cosmos 1727 Rocket 3.9 08:08:06 57° SSW 08:09:31 87° W 08:15:52 10° N
Cosmos 2221 3.6 08:06:17 10° NNW 08:09:24 35° WNW 08:09:24 35° WNW
Cosmos 44 3.5 08:11:08 55° WNW 08:11:15 55° WNW 08:15:43 10° NNE
Cosmos 1782 3.2 08:08:45 10° N 08:12:09 62° N 08:12:09 62° N
Gbstr 26 Del rocket 3.9 08:11:52 41° WNW 08:12:57 50° NNW 08:18:20 10° NE
Cosmos 2151 3.1 08:13:48 67° NW 08:13:48 67° NW 08:17:42 10° N
Cosmos 2219 Rocket 2.7 08:11:50 10° NNW 08:17:26 57° ENE 08:20:45 24° SE
Cosmos 972 Rocket 4.4 08:12:27 10° NNW 08:17:23 49° W 08:17:23 49° W
CZ-2D R/B 2.0 08:14:03 10° NNE 08:19:16 77° ESE 08:20:08 61° S
Cosmos 1763 Rocket 3.4 08:21:31 65° WSW 08:22:09 74° WNW 08:27:26 10° NNE
Cosmos 1000 Rocket 4.5 08:21:10 46° SSE 08:23:03 75° E 08:29:12 10° N
Resurs 1-4 Rocket 2.0 08:20:55 10° NNE 08:26:16 88° WNW 08:27:18 60° SSW
CENTAUR R/B 2.5 08:25:27 48° SSE 08:26:45 60° ESE 08:33:14 10° NE
Cosmos 841 Rocket 4.1 08:26:09 40° SE 08:27:17 47° ESE 08:32:12 10° NNE
UNK 4.5 08:25:58 32° SE 08:27:47 49° ENE 08:32:17 10° N
Cosmos 1459 Rocket 4.1 08:23:09 10° N 08:29:12 68° E 08:31:57 33° SSE
COSMOS 2487 4.2 08:32:35 23° NNW 08:32:35 23° NNW 08:34:12 10° N
Meteor 2-3 Rocket 4.3 08:32:27 38° W 08:33:23 41° WNW 08:38:41 10° N
Cosmos 2100 Rocket 4.0 08:28:09 10° N 08:34:34 83° E 08:37:22 36° SSE
SL-27 R/B 4.2 08:35:33 24° NW 08:35:33 24° NW 08:37:32 10° N
Cosmos 990 Rocket 3.8 08:31:00 10° NNW 08:36:10 88° WSW 08:37:32 50° SSE
Cosmos 468 Rocket 4.2 08:39:21 48° WSW 08:40:24 57° WNW 08:45:38 10° N
Cosmos 2123 Rocket 4.2 08:38:12 33° SSE 08:41:02 65° E 08:47:17 10° NNE
SL-4 R/B 3.6 08:40:10 21° NW 08:41:18 25° NNW 08:44:32 10° NNE
Cosmos 2322 Rocket 3.6 08:37:19 10° NW 08:40:49 22° W 08:40:49 22° W
NOSS 3-2 (C) 3.9 08:41:00 34° SSE 08:42:37 42° ESE 08:48:12 10° NE
Cosmos 1812 3.2 08:39:03 10° NNW 08:42:09 46° WNW 08:42:09 46° WNW
Cosmos 2333 Rocket 2.2 08:38:32 10° NNW 08:44:14 63° WSW 08:45:46 46° SSW
MOS 1 Rocket 3.3 08:44:06 49° S 08:45:29 84° WSW 08:50:43 10° NNW
Cosmos 2173 Rocket 4.0 08:41:41 10° N 08:48:04 82° W 08:50:58 35° S
USA 238 DEB 3.8 08:57:58 33° S 09:00:50 62° ESE 09:07:26 10° NE
USA 238 3.8 08:58:05 33° S 09:00:58 62° ESE 09:07:34 10° NE
OAO 3 Rocket 3.5 09:01:03 45° S 09:01:32 47° S 09:06:17 10° E
Cosmos 2016 Rocket 3.9 08:55:27 10° N 09:01:35 82° E 09:05:35 23° S
AQUA 4.0 08:59:09 10° N 09:03:50 60° WNW 09:05:09 43° SW
EO 1 Del DPAF 3.4 09:00:39 10° NNE 09:04:04 54° E 09:04:39 47° SE
Cosmos 1898 Rocket 3.3 08:59:04 10° NNW 09:04:14 75° WSW 09:06:39 32° S
Cosmos 2061 Rocket 4.2 08:58:37 10° N 09:05:05 75° E 09:10:11 17° SSE
Cosmos 1340 2.7 09:01:30 10° N 09:05:13 72° E 09:06:14 45° SSE
Cosmos 2285 Rocket 4.5 09:02:38 32° WSW 09:05:15 49° WNW 09:11:29 10° N
Cosmos 1802 Rocket 3.9 08:59:25 10° N 09:05:39 78° W 09:09:12 28° S
ADEOS II 2.1 09:00:56 10° N 09:06:11 72° WNW 09:08:11 38° SSW
ISS -2.7 09:06:38 33° WNW 09:07:13 37° NNW 09:10:22 10° NE
Cosmos 540 Rocket 4.0 09:08:49 34° WSW 09:10:24 44° WNW 09:15:20 10° N
NPP 4.3 09:05:48 10° N 09:10:51 42° WNW 09:12:47 31° WSW
MSX 3.8 09:06:48 10° NNE 09:12:37 85° ESE 09:15:44 29° S
Meteor 1-28 Rocket 3.0 09:12:33 55° SSW 09:13:13 74° WSW 09:16:55 10° NNW
Cosmos 2227 Rocket 3.1 09:11:00 20° SSE 09:14:32 41° ESE 09:19:49 10° NE
USA 290 2.8 09:15:01 10° NNW 09:17:35 41° WNW 09:17:35 41° WNW
Cosmos 1937 Rocket 3.4 09:14:41 10° NNW 09:19:56 76° WSW 09:23:38 19° S
Timation 1 Rocket 4.4 09:17:06 32° SW 09:19:59 69° WNW 09:26:00 10° NNE
Cosmos 1864 Rocket 4.4 09:14:03 10° N 09:20:17 75° W 09:24:27 22° S
Cosmos 2360 Rocket 3.8 09:17:13 10° WNW 09:20:08 16° W 09:20:08 16° W
BREEZE-M DEB (TANK) 4.3 09:16:51 10° WNW 09:19:24 23° W 09:19:24 23° W
Helios 1B rocket 4.1 09:22:56 10° NE 09:26:32 29° E 09:29:53 11° SSE
USA 215 4.2 09:21:11 10° ENE 09:27:10 37° SE 09:31:32 17° S
SAR-Lupe-2 4.3 09:25:39 10° N 09:28:58 36° WNW 09:29:38 33° W
Cosmos 1570 Rocket 4.1 09:28:19 24° S 09:31:30 71° ESE 09:36:43 10° NNE
SL-16 R/B 3.1 09:28:48 26° SW 09:31:31 38° W 09:37:19 10° NNW
Cosmos 1814 Rocket 3.9 09:28:51 29° SSW 09:31:31 83° WNW 09:36:40 10° NNE
COSMOS 2428 2.9 09:26:07 10° NNW 09:31:37 50° WSW 09:35:31 19° S
Helios 1A 2.9 09:31:12 27° S 09:33:23 65° W 09:37:32 10° NNW
Cosmos 1328 Rocket 3.5 09:31:23 10° NNW 09:35:47 72° W 09:38:31 22° S
Cosmos 2208 Rocket 4.5 09:32:14 19° S 09:36:06 61° ESE 09:41:27 10° NNE
Meteor 1-27 Rocket 3.7 09:31:51 10° N 09:37:31 83° E 09:43:03 10° S
Cosmos 2219 3.6 09:34:05 18° S 09:38:11 58° ESE 09:43:42 10° NNE
Meteor 1-20 Rocket 4.3 09:36:02 16° S 09:40:30 75° E 09:46:00 10° NNE
Cosmos 1151 Rocket 3.7 09:36:32 10° NNW 09:40:35 37° W 09:42:08 28° SW
IDEFIX/ARIANE 42P 3.3 09:36:42 10° N 09:41:30 39° WNW 09:44:10 23° WSW
Cosmos 2237 Rocket 2.5 09:36:23 10° NNW 09:42:03 70° ENE 09:47:40 10° SSE
Cosmos 1515 Rocket 3.9 09:38:13 10° N 09:42:36 67° E 09:46:55 10° SSE
Cosmos 1766 Rocket 4.3 09:43:01 26° WSW 09:44:41 35° WNW 09:48:41 10° N
Cosmos 2297 Rocket 2.2 09:41:18 24° SSW 09:44:47 71° WNW 09:50:27 10° NNE
Cosmos 1500 3.4 09:42:22 20° S 09:44:54 68° E 09:48:39 10° NNE
Cosmos 1400 Rocket 2.8 09:45:24 21° S 09:47:56 83° E 09:51:55 10° N
NOSS 3-2 (A) 4.4 09:45:14 16° W 09:49:00 33° NW 09:54:37 10° NNE
CZ-2C R/B 3.3 09:45:23 10° NNE 09:49:44 41° E 09:54:02 10° S
COSMOS 2455 3.2 09:43:56 10° NNW 09:49:57 68° ENE 09:55:55 10° SE
Cosmos 1743 Rocket 4.0 09:50:18 10° S 09:54:34 60° E 09:58:55 10° NNE
CZ-2D R/B 4.1 09:56:18 10° NNW 09:58:37 13° WNW 10:00:58 10° W
Cosmos 2219 Rocket 3.6 09:57:04 10° WNW 10:00:51 18° W 10:02:23 17° WSW
Sich 1 4.3 09:58:16 10° SSE 10:02:17 39° E 10:06:17 10° NNE
Cosmos 44 Rocket 3.8 10:00:26 13° S 10:04:35 53° ESE 10:09:15 10° NE
Resurs 1-4 Rocket 4.3 10:03:43 10° NW 10:05:15 11° WNW 10:06:46 10° WNW
SL-19 R/B 4.1 10:02:08 10° N 10:07:22 69° WNW 10:11:58 13° SSW
ALOS 2.4 10:04:19 10° NNE 10:09:00 77° ESE 10:13:38 10° S
Cosmos 1408 Rocket 3.9 10:06:31 17° SSW 10:09:30 45° W 10:13:40 10° N
Meteor 1-19 Rocket 4.5 10:05:16 10° N 10:11:20 83° E 10:17:20 10° S
Cosmos 1544 3.9 10:13:41 10° SSE 10:17:03 47° E 10:20:26 10° NNE
Cosmos 2098 Rocket 2.8 10:14:57 10° S 10:17:48 50° E 10:20:36 10° NNE
CENTAUR R/B 4.0 10:12:56 10° W 10:17:56 27° NW 10:23:46 10° NNE
NOSS 0 Rocket 4.4 10:12:53 10° NW 10:18:30 38° WSW 10:24:06 10° S
Lacrosse 4 Rocket 4.1 10:16:59 10° N 10:20:16 23° NE 10:23:34 10° ESE
Cosmos 371 Rocket 3.6 10:16:32 10° NNW 10:21:21 70° ENE 10:26:09 10° SSE
H-2A R/B 3.7 10:18:41 13° SW 10:22:27 24° S 10:37:13 10° SE
OE (NEXTSAT) 4.5 10:20:26 16° SW 10:22:53 55° SSE 10:26:07 10° ENE
IRIDIUM 114 4.4 10:19:21 10° S 10:24:33 86° E 10:29:48 10° N
Cosmos 2346 Rocket 4.4 10:21:45 10° S 10:27:48 82° W 10:33:58 10° N
ASTRO E2 4.5 10:29:39 12° SW 10:31:07 14° SSW 10:33:12 10° SSE
USA 276 4.0 10:32:50 12° SW 10:32:50 12° SW 10:33:48 10° SSW
IRIDIUM 103 4.3 10:28:31 10° S 10:33:43 78° W 10:38:57 10° N
Cosmos 1346 Rocket 2.7 10:32:37 10° NNW 10:36:31 73° W 10:40:22 10° S
Cosmos 921 Rocket 3.5 10:34:08 10° S 10:38:35 66° ESE 10:43:03 10° NNE
Cosmos 1500 Rocket 4.3 10:34:37 10° SW 10:38:43 37° WNW 10:42:51 10° N
Cosmos 304 Rocket 4.3 10:35:13 10° NNW 10:39:58 65° ENE 10:44:42 10° SSE
ARIANE 5 R/B 2.5 10:36:49 10° N 10:41:51 76° WNW 10:46:54 10° SSW
Cosmos 1980 4.4 10:37:51 10° NW 10:42:50 33° WSW 10:47:49 10° SSW
ISS -0.9 10:43:28 10° NW 10:44:44 12° NNW 10:46:00 10° N
OAO 3 Rocket 3.5 10:39:57 10° W 10:44:47 54° S 10:49:35 10° ESE
ATLAS CENTAUR R/B 3.4 10:41:53 10° S 10:45:53 30° ESE 10:50:04 10° NE
CZ-2C R/B 3.8 10:41:45 10° SE 10:47:05 51° ENE 10:52:30 10° N
Cosmos 2298 Rocket 4.0 10:42:59 10° NNW 10:48:20 77° WSW 10:53:38 10° S
Cosmos 1356 3.3 10:45:36 10° N 10:48:53 85° E 10:52:07 10° S
ATLAS 3B R/B 4.5 10:44:25 10° SSE 10:49:31 25° ESE 10:54:49 10° NE
IRS-P3 4.3 10:44:25 10° N 10:49:40 61° WNW 10:54:53 10° SSW
